Location: Bessat
(45.8735°N, 1.9924°E)
Time: 09:04:57
(UTC+00:00)

USA 290 - Pass Details

Date: 11 May 2021
Orbit: 400 x 415 km, 73.6° (Epoch: 12 May)

Event Time Altitude Azimuth Distance (km) Brightness Sun altitude
Rises 20:02:56 0° 336° (NNW) 2,350 7.3 -8.3°
Reaches altitude 10° 20:05:00 10° 334° (NNW) 1,481 6.2 -8.5°
Maximum altitude 20:08:13 71° 251° (WSW) 435 2.4 -9.0°
Drops below altitude 10° 20:11:25 10° 166° (SSE) 1,459 4.5 -9.4°
Enters shadow 20:11:37 - 166° (SSE) 1,546 4.6 -9.4°
